• Join FlightAware (Why Join?)
  • Login
  • US Flag 
12:56AM EDT


 

Airport Tracker/Info


-or-


 

Live Flight TrackerFlight Track Log ✈ SWA920 ✈ 01-May-2013 ✈ KBWI - KBOS

Flight Track Log - Related Links

Times and Time Zones

All times are in EDT time to prevent confusion due to time zone crossing. See the SWA920 flight status page for this flight to view local times or setup timezone preferences in your user account.

Time Position Orientation Groundspeed Altitude Reporting Facility
EDT Latitude Longitude Course Direction KTS MPH feet Rate Location/Type
10:07PM 39.1300 -76.6031 284° West 154 177 3,500  Level Washington Center
10:08PM 39.1369 -76.5228 84° East 170 196 6,000 3,060 Climbing Washington Center
10:09PM 39.1397 -76.4267 88° East 222 255 9,700 3,120 Climbing Washington Center
10:10PM 39.1447 -76.3142 87° East 260 299 12,200 3,000 Climbing Washington Center
10:11PM 39.1536 -76.1911 85° East 301 346 15,700 2,940 Climbing Washington Center
10:12PM 39.1731 -76.0628 79° East 338 389 18,200 2,640 Climbing Washington Center
10:13PM 39.1507 -76.5535 284° West  Level FlightAware Approximate
10:13PM 39.1881 -75.9289 82° East 361 415 21,000  Level Washington Center
10:14PM 39.2425 -75.8139 59° Northeast 365 420 23,500 2,340 Climbing Washington Center
10:15PM 39.3197 -75.7122 46° Northeast 370 426 25,800 2,160 Climbing Washington Center
10:16PM 39.4053 -75.6078 43° Northeast 388 447 27,900 2,040 Climbing Washington Center
10:17PM 39.4864 -75.5003 46° Northeast 400 460 29,900 2,220 Climbing Washington Center
10:18PM 39.5675 -75.3978 44° Northeast 405 466 32,500 2,280 Climbing Washington Center
10:19PM 39.6464 -75.2950 45° Northeast 405 466 34,600 1,860 Climbing Washington Center
10:20PM 39.6783 -75.2511 47° Northeast 407 468 35,200 1,140 Climbing New York Center
10:21PM 39.7511 -75.1397 50° Northeast 412 474 36,300 840 Climbing New York Center
10:22PM 39.8303 -75.0283 47° Northeast 412 474 36,900 -600 Climbing New York Center
10:23PM 39.9031 -74.9164 50° Northeast 413 475 35,200 -1,260 Descending New York Center
10:24PM 39.9669 -74.8228 48° Northeast 404 465 34,400 -900 Descending New York Center
10:25PM 40.0439 -74.7025 50° Northeast 389 448 33,400 -720 Descending New York Center
10:26PM 40.1097 -74.6031 49° Northeast 395 455 33,000 -240 Descending New York Center
10:27PM 40.1842 -74.4903 49° Northeast 395 455 33,000  Level New York Center
10:28PM 40.2564 -74.3800 49° Northeast 400 460 33,000  Level New York Center
10:29PM 40.3286 -74.2694 49° Northeast 395 455 33,000  Level New York Center
10:31PM 40.5078 -73.9986 49° Northeast 396 456 33,000  Level Boston Center
10:32PM 40.5781 -73.8883 50° Northeast 385 443 33,000 -600 Level Boston Center
10:33PM 40.6333 -73.7992 51° Northeast 385 443 31,800 -2,160 Descending Boston Center
10:34PM 40.7183 -73.6642 50° Northeast 390 449 28,700 -2,820 Descending Boston Center
10:35PM 40.7861 -73.5531 51° Northeast 396 456 26,200 -2,400 Descending Boston Center
10:36PM 40.8536 -73.4472 50° Northeast 391 450 24,000 -1,320 Descending Boston Center
10:37PM 40.9233 -73.3439 48° Northeast 380 437 23,600 -480 Descending Boston Center
10:39PM 40.9972 -73.2403 47° Northeast 380 437 23,000 -300 Descending Boston Center
10:40PM 41.0689 -73.1036 55° Northeast 379 436 23,000  Level Boston Center
10:41PM 41.1194 -72.9800 61° Northeast 379 436 23,000  Level Boston Center
10:42PM 41.1700 -72.8536 62° Northeast 379 436 23,000  Level Boston Center
10:43PM 41.2183 -72.7272 63° Northeast 379 436 23,000  Level Boston Center
10:44PM 41.2750 -72.5836 62° Northeast 385 443 23,000  Level Boston Center
10:45PM 41.3250 -72.4539 63° Northeast 390 449 23,000  Level Boston Center
10:46PM 41.3769 -72.3239 62° Northeast 390 449 23,000  Level Boston Center
10:47PM 41.4228 -72.2158 60° Northeast 381 438 23,000 -360 Level Boston Center
10:48PM 41.4703 -72.0856 64° Northeast 381 438 22,300 -1,560 Descending Boston Center
10:49PM 41.5200 -71.9633 61° Northeast 381 438 19,900 -2,220 Descending Boston Center
10:50PM 41.5672 -71.8408 63° Northeast 371 427 17,900 -2,400 Descending Boston Center
10:51PM 41.6144 -71.7153 63° Northeast 360 414 15,100 -2,520 Descending Boston Center
10:52PM 41.6553 -71.6094 63° Northeast 344 396 12,900 -1,920 Descending Boston Center
10:53PM 41.7025 -71.4864 63° Northeast 344 396 11,300 -960 Descending Boston Center
10:54PM 41.7453 -71.3967 57° Northeast 303 349 11,000 -180 Descending Boston Center
10:55PM 41.7989 -71.3233 46° Northeast 278 320 11,000 -300 Level Boston Center
10:56PM 41.8544 -71.2556 42° Northeast 267 307 10,400 -1,020 Descending Boston Center
10:57PM 41.9186 -71.2236 20° North 260 299 9,000 -1,500 Descending Boston Center
10:58PM 41.9914 -71.1886 20° North 255 293 7,400 -1,500 Descending Boston Center
10:59PM 42.0514 -71.1567 22° Northeast 250 288 6,100 -1,620 Descending Boston Center
11:00PM 42.1239 -71.1217 20° North 250 288 4,200 -1,680 Descending Boston Center
11:00PM 42.1500 -71.1000 32° Northeast 251 289 3,800 -900 Descending KA90
11:01PM 42.2000 -71.0833 14° North 195 224 3,000 -840 Descending KA90
11:02PM 42.2500 -71.0667 14° North 175 201 2,200 -900 Descending KA90
11:03PM 42.3000 -71.0333 26° Northeast 172 198 1,300 -900 Descending KA90
11:04PM 42.3333 -71.0167 20° North 151 174 500 8,340 Descending KA90
11:06PM 42.3975 -70.9978 12° North 161 185 23,000 14,040 Climbing Boston Center